Weather History for K8D3 - January, 2013

Change the Weather History Date:

Wednesday, January 16, 2013

  Actual Average Record
Temperature  
Mean Temperature 18 °F 13 °F  
Max Temperature 37 °F 23 °F 54 °F (1942)
Min Temperature -1 °F 3 °F -27 °F (1977)
Degree Days  
Heating Degree Days 47 52  
Month to date heating degree days 739 832  
Since 1 July heating degree days 4114 4171  
Cooling Degree Days 0 0  
Month to date cooling degree days 0 0  
Year to date cooling degree days 0 0  
Moisture  
Dew Point 14 °F    
Average Humidity 84    
Maximum Humidity 100    
Minimum Humidity 67    
Precipitation  
Precipitation 0.04 in 0.01 in 0.38 in (1967)
Month to date precipitation 0.18 0.25  
Year to date precipitation 0.18 0.25  
Snow  
Snow 0.80 in - - ()
Month to date snowfall 1.3  
Since 1 July snowfall 10.3  
Snow Depth T in    
Sea Level Pressure  
Sea Level Pressure 30.01 in    
Wind  
Wind Speed 14 mph (North)    
Max Wind Speed 28 mph    
Max Gust Speed 35 mph    
T = Trace of Precipitation, MM = Missing Value Source: NWS Daily Summary

Daily Weather History Graph

Daily Weather History Graph

Search for Another Location

Airport or City:

Trip Planner

Search our weather history database for the weather conditions in past years. The results will help you decide how hot, cold, wet, or windy it might be!

Date:

Astronomy

Jan. 16, 2013 Rise Set
Actual Time 8:03 AM CST 5:12 PM CST
Civil Twilight 7:30 AM CST 5:45 PM CST
Nautical Twilight 6:54 AM CST 6:22 PM CST
Astronomical Twilight 6:18 AM CST 6:57 PM CST
Moon 10:21 AM CST (1/16) 11:26 PM CST (1/16)
Length of Visible Light 10h 14m
Length of Day
9h 08m
Waxing Crescent, 28% of the Moon is Illuminated
Jan 16
Waxing Crescent
Jan 18
First Quarter
Jan 26
Full
Feb 3
Last Quarter
Feb 10
New

Hourly Weather History & Observations

Time (CST) Temp. Windchill Dew Point Humidity Pressure Visibility Wind Dir Wind Speed Gust Speed Precip Events Conditions
12:56 AM 32.0 °F 18.9 °F 27.0 °F 82% 29.67 in - West 24.2 mph 31.1 mph N/A   Unknown
1:56 AM 35.1 °F 23.3 °F 30.9 °F 85% 29.67 in - WNW 23.0 mph 28.8 mph N/A   Unknown
2:56 AM 37.0 °F 26.2 °F 32.0 °F 82% 29.69 in - WNW 21.9 mph 27.6 mph N/A   Unknown
3:56 AM 37.0 °F 26.2 °F 32.0 °F 82% 29.70 in - NW 21.9 mph 34.5 mph N/A   Unknown
4:56 AM 37.0 °F 26.2 °F 32.0 °F 82% 29.71 in - NW 21.9 mph - 0.01 in   Unknown
5:56 AM 36.0 °F 27.5 °F 32.0 °F 86% 29.73 in - NNW 12.7 mph - 0.01 in   Unknown
6:56 AM 37.0 °F 28.1 °F 33.1 °F 86% 29.74 in - NW 15.0 mph - N/A   Unknown
7:56 AM 36.0 °F 28.0 °F 32.0 °F 86% 29.78 in - North 11.5 mph - N/A   Unknown
8:56 AM 28.9 °F 21.9 °F 28.0 °F 96% 29.81 in - ENE 6.9 mph - N/A   Unknown
9:56 AM 24.1 °F 11.5 °F 21.9 °F 91% 29.87 in - NE 15.0 mph - N/A   Unknown
10:56 AM 21.9 °F 9.8 °F 19.0 °F 89% 29.92 in - NNE 12.7 mph - 0.01 in   Unknown
11:56 AM 19.0 °F 3.2 °F 16.0 °F 88% 29.95 in - North 19.6 mph - 0.01 in   Unknown
12:56 PM 17.1 °F 1.0 °F 12.0 °F 81% 30.01 in - NNE 18.4 mph - N/A   Unknown
1:56 PM 16.0 °F -0.4 °F 10.0 °F 77% 30.05 in - North 18.4 mph - N/A   Unknown
2:56 PM 14.0 °F -2.5 °F 5.0 °F 67% 30.09 in - NNE 17.3 mph - N/A   Unknown
3:56 PM 12.0 °F -5.1 °F 3.0 °F 67% 30.16 in - North 17.3 mph - N/A   Unknown
4:56 PM 8.1 °F -10.2 °F -0.9 °F 67% 30.21 in - North 17.3 mph - N/A   Unknown
5:56 PM 6.1 °F -8.7 °F -2.9 °F 67% 30.28 in - North 10.4 mph - N/A   Unknown
6:56 PM 3.0 °F -8.0 °F -5.1 °F 69% 30.31 in - NNW 5.8 mph - N/A   Unknown
7:56 PM 3.0 °F -8.0 °F -5.1 °F 69% 30.34 in - NW 5.8 mph - N/A   Unknown
8:56 PM 1.9 °F -11.8 °F -5.1 °F 72% 30.36 in - North 8.1 mph - N/A   Unknown
9:56 PM -0.0 °F -11.6 °F -6.0 °F 76% 30.39 in - North 5.8 mph - N/A   Unknown
10:56 PM -0.9 °F -8.9 °F -6.0 °F 79% 30.38 in - NNE 3.5 mph - N/A   Unknown
11:56 PM -0.9 °F -8.9 °F -8.0 °F 72% 30.41 in - North 3.5 mph - N/A   Unknown